EST,Max TemperatureF,Mean TemperatureF,Min TemperatureF,Max Dew PointF,MeanDew PointF,Min DewpointF,Max Humidity, Mean Humidity, Min Humidity, Max Sea Level PressureIn, Mean Sea Level PressureIn, Min Sea Level PressureIn, Max VisibilityMiles, Mean VisibilityMiles, Min VisibilityMiles, Max Wind SpeedMPH, Mean Wind SpeedMPH, Max Gust SpeedMPH,PrecipitationIn, CloudCover, Events, WindDirDegrees
2013-2-1,20,14,7,12,6,-1,80,69,56,30.51,30.33,30.19,10,9,1,21,14,31,0.00,5,Snow,282
2013-2-2,35,27,19,28,20,13,88,74,60,30.34,30.19,30.01,10,8,2,15,8,22,0.00,7,Snow,205
2013-2-3,32,26,20,29,24,17,94,80,64,30.18,30.06,29.97,10,8,2,15,7,25,0.01,7,Snow,266
2013-2-4,48,33,18,42,32,15,94,81,49,30.15,29.94,29.85,10,10,4,17,7,23,0.12,7,Rain,210
2013-2-5,50,42,34,39,36,31,100,85,55,30.06,29.93,29.88,10,7,1,14,9,,0.00,6,,251
2013-2-6,45,34,24,32,29,23,96,78,53,30.25,30.19,30.07,10,8,2,8,4,,0.00,2,,356
2013-2-7,65,50,35,44,36,29,83,63,39,30.14,30.00,29.85,10,10,10,15,6,,0.00,3,,133
2013-2-8,51,40,30,48,38,26,95,86,73,30.36,30.01,29.84,10,10,6,17,11,22,0.11,8,Rain,283
2013-2-9,46,37,28,27,24,22,86,65,40,30.40,30.32,30.17,10,10,10,9,5,,0.00,3,,67
2013-2-10,57,46,36,52,41,24,100,78,46,30.16,29.95,29.82,10,10,2,24,11,43,0.18,7,Rain-Thunderstorm,157
2013-2-11,55,46,36,52,39,24,100,72,38,30.13,29.94,29.83,10,10,10,23,12,31,0.00,3,,226
2013-2-12,49,38,28,31,27,24,87,64,40,30.18,30.07,29.89,10,10,10,8,4,,0.00,3,,277
2013-2-13,40,36,31,35,30,28,100,81,63,29.96,29.85,29.77,10,7,1,13,7,17,0.03,6,Snow,319
2013-2-14,56,44,32,37,34,30,93,76,43,30.01,29.95,29.89,10,9,4,17,10,24,0.00,4,,216
2013-2-15,43,35,26,33,27,18,87,69,47,30.20,30.11,30.02,10,10,10,14,7,22,0.00,5,Rain,291
2013-2-16,33,26,19,19,13,6,86,61,33,30.18,30.14,30.10,10,10,10,16,6,24,0.00,2,,294
2013-2-17,39,27,15,16,13,10,82,57,32,30.28,30.21,30.17,10,10,10,8,3,17,0.00,0,,217
2013-2-18,60,44,29,42,30,15,85,52,33,30.18,29.95,29.77,10,10,10,25,13,39,0.13,3,Rain,170
2013-2-19,45,35,23,43,33,14,93,80,43,30.22,29.89,29.73,10,10,6,23,17,36,0.16,6,Rain,242
2013-2-20,31,23,15,17,13,11,82,62,47,30.35,30.29,30.22,10,10,10,12,7,21,0.00,3,,311
2013-2-21,37,28,19,31,22,13,93,74,45,30.32,30.12,29.96,10,8,3,20,9,25,0.23,5,Rain,64
2013-2-22,48,40,32,41,35,30,100,92,66,30.02,29.92,29.86,10,6,1,17,7,23,0.09,7,Rain,175
2013-2-23,44,36,27,34,26,21,93,74,42,30.04,30.00,29.94,10,10,10,9,6,,0.00,4,,270
2013-2-24,47,34,22,26,22,19,89,64,35,30.17,30.10,30.01,10,10,10,6,3,,0.00,0,,350
2013-2-25,51,40,29,26,24,23,78,55,35,30.11,29.99,29.75,10,10,10,18,9,25,0.00,2,,63
2013-2-26,50,44,38,50,39,23,100,86,45,29.70,29.47,29.36,10,7,1,20,12,30,0.65,8,Rain,127
2013-2-27,39,36,32,36,33,30,100,88,80,29.82,29.73,29.60,10,8,2,17,12,28,0.03,8,Snow,232
2013-2-28,35,34,32,33,30,28,94,89,86,30.02,29.88,29.81,10,8,4,14,10,22,0.00,8,Snow,253